Location: Newark
(27.9675°N, 86.8869°E)
Time: 01:31:30
(UTC+00:00)

Vanguard 3 - Pass Details

Date: 01 November 2019
Orbit: 508 x 3263 km, 33.3° (Epoch: 12 November)

Event Time Altitude Azimuth Distance (km) Brightness Sun altitude
Rises 19:51:10 0° 279° (W) 2,690 - -60.1°
Reaches altitude 10° 19:53:43 10° 264° (W) 1,719 - -59.6°
Maximum altitude 19:56:41 23° 209° (SSW) 1,120 - -59.0°
Drops below altitude 10° 19:59:51 10° 155° (SSE) 1,846 - -58.3°
Sets 20:02:43 0° 140° (SE) 2,953 - -57.7°
